Starlink 30603

operational
NORAD ID: 58080 Int'l Des: 2023-160 Owner: SPXS Country: US Constellation: starlink
LEOCIRCULAR

Starlink 30603について

説明を読み込み中...

リアルタイム位置

3D地球を読み込み中...

次回通過

高度履歴

Altitude vs Time

uPlot chart will show altitude changes over time

軌道要素

1 58080U 23160F 25354.82882295 .00000022 00000-0 16728-4 0 9998
2 58080 43.0023 148.8994 0001140 258.1614 101.9100 15.02535201121056
Epoch: Dec 20, 2025 • Age: 6 hours

現在のステータス

高度 559.0 km
速度 7.58 km/s
衛星直下点 -2.35°S, 142.1°W
打ち上げ日 Oct 18, 2023
運用期間 2.1 years
タイプ internet

技術仕様

分類 Payload
質量 730.00 kg
乾燥質量 700.00 kg
総質量 730.00 kg
長さ 0.30 m
直径 4.10 m
スパン 29.00 m
形状 Box + pan
製造者 SPXS
バスタイプ Starlink V2M
フェーズステータス In Orbit
所有者/国 SPXS/US

大規模コンステレーション

Loading constellations...